Location: Burland Observatory
(39.4088°N, 105.4217°W)
Time: 18:43:09
(UTC-06:00)

N. Korean satellite - Visible Passes

Search period start: 22 October 2019 00:00
Search period end: 01 November 2019 00:00
Orbit: 455 x 508 km, 97.2° (Epoch: 22 October)

Date Brightness Start Highest point End Pass type
(mag) Time Alt. Az. Time Alt. Az. Time Alt. Az.
22 Oct 10.3 05:53:01 10° ENE 05:54:28 12° E 05:55:56 10° ESE visible
23 Oct 10.0 19:08:30 10° SW 19:10:28 15° W 19:12:28 10° WNW visible
24 Oct 8.1 06:33:59 10° NNE 06:37:27 41° E 06:40:57 10° S visible
24 Oct 8.7 18:41:58 10° SSW 18:45:01 31° W 18:48:08 10° NNW visible
25 Oct 9.7 06:09:18 10° NE 06:12:03 20° E 06:14:49 10° SE visible
27 Oct 6.9 06:51:15 10° NNE 06:54:55 74° ESE 06:58:36 10° S visible
27 Oct 9.8 19:00:04 10° SW 19:02:31 18° W 19:05:01 10° NW visible
28 Oct 8.6 06:26:13 10° NNE 06:29:34 33° E 06:32:56 10° SSE visible
28 Oct 8.2 18:33:51 10° S 18:37:05 39° W 18:40:23 10° NNW visible
29 Oct 10.0 06:01:44 10° NE 06:04:08 16° E 06:06:31 10° SE visible
30 Oct 10.3 19:19:03 10° WSW 19:20:03 11° W 19:21:04 10° WNW visible
31 Oct 7.4 06:43:22 10° NNE 06:47:01 58° E 06:50:40 10° S visible
31 Oct 9.3 18:51:44 10° SSW 18:54:32 23° W 18:57:24 10° NW visible
